This is the latest recevied weather packets stored in our database for station/object K7FRY. If no packets are shown the sender has not sent any weather packets the latest 10 day(s).
| Time | Temp. | Humidity | Pressure | Rain* | Wind** | Luminosity | Snow |
|---|---|---|---|---|---|---|---|
| 1778016232 | 23.33° C | 43% | 1011.5 hPa | 0 mm | - | 725 W/m² | - |
| 1778015928 | 23.89° C | 41% | 1011.6 hPa | 0 mm | - | 764 W/m² | - |
| 1778015626 | 23.89° C | 42% | 1011.8 hPa | 0 mm | - | 783 W/m² | - |
| 1778015322 | 24.44° C | 38% | 1011.9 hPa | 0 mm | - | 739 W/m² | - |
| 1778015020 | 23.89° C | 41% | 1011.8 hPa | 0 mm | - | 761 W/m² | - |
| 1778014716 | 23.33° C | 43% | 1011.9 hPa | 0 mm | - | 806 W/m² | - |
| 1778014415 | 23.89° C | 41% | 1011.9 hPa | 0 mm | - | 762 W/m² | - |
| 1778014111 | 23.89° C | 41% | 1012 hPa | 0 mm | - | 769 W/m² | - |
| 1778013809 | 23.33° C | 42% | 1012.1 hPa | 0 mm | - | 778 W/m² | - |
| 1778013506 | 23.33° C | 46% | 1012.1 hPa | 0 mm | - | 782 W/m² | - |
| 1778013202 | 23.33° C | 48% | 1012.1 hPa | 0 mm | - | 778 W/m² | - |
| 1778012899 | 23.33° C | 47% | 1012.4 hPa | 0 mm | - | 789 W/m² | - |
| 1778012595 | 23.33° C | 47% | 1012.1 hPa | 0 mm | - | 814 W/m² | - |
| 1778012292 | 22.78° C | 48% | 1012.3 hPa | 0 mm | - | 843 W/m² | - |
| 1778011989 | 23.33° C | 48% | 1012.3 hPa | 0 mm | - | 823 W/m² | - |
| 1778011688 | 23.33° C | 48% | 1012 hPa | 0 mm | - | 834 W/m² | - |
| 1778011384 | 23.33° C | 47% | 1012.2 hPa | 0 mm | - | 850 W/m² | - |
| 1778011079 | 24.44° C | 48% | 1012.2 hPa | 0 mm | - | 902 W/m² | - |
| 1778010777 | 23.89° C | 48% | 1012.4 hPa | 0 mm | - | 960 W/m² | - |
| 1778010474 | 22.78° C | 48% | 1012.5 hPa | 0 mm | - | 643 W/m² | - |
| 1778010171 | 22.78° C | 49% | 1012.4 hPa | 0 mm | - | 280 W/m² | - |
| 1778009866 | 23.33° C | 48% | 1012.6 hPa | 0 mm | - | 204 W/m² | - |
| 1778009564 | 22.78° C | 49% | 1012.3 hPa | 0 mm | - | 918 W/m² | - |
| 1778009262 | 22.78° C | 51% | 1012.6 hPa | 0 mm | - | 832 W/m² | - |
| 1778008960 | 21.67° C | 53% | 1012.5 hPa | 0 mm | - | 869 W/m² | - |
* Rain latest hour (hover to see other rain measurements)
** Current wind speed in m/s (hover to see current wind gust speed)